Flag for Canada Weather past 2 weeks in Yellowknife, Northwest Territories, Canada

Now
-17 °F

Light snow. Mostly cloudy.


Feels Like: -27 °F
Forecast: -18 / -14 °F
Wind: 3 mph from North

Location: Yellowknife

Current Time: Dec 28, 2014 at 3:14:34 AM

Latest Report: Dec 28, 2014 at 2:00 AM


Visibility: 10 mi

Pressure: 30.56 "Hg

Humidity: 76%

Dew point: -22 °F

Location of YellowknifeLocation

Historic Weather in Yellowknife — Graph

°F

Yellowknife temperature yesterday

Maximum temperature yesterday: -18 °F (at 6:00 PM)
Minimum temperature yesterday: -26 °F (at 12:00 AM)
Average temperature yesterday: -22 °F

Past Weeks' High & Low Weather Summary

 TemperatureHumidityPressure
High14 °F (Dec 15, 8:00 PM)92% (Dec 13, 5:00 AM)30.56 "Hg (Dec 13, 5:00 AM)
Low-38 °F (Dec 25, 10:00 AM)65% (Dec 25, 10:00 AM)29.52 "Hg (Dec 20, 11:00 AM)
Average-4 °F82%29.99 "Hg
* Reported Dec 13 2:00 AM — Dec 28 2:00 AM, Yellowknife, Weather by CustomWeather, © 2014

Note: Actual official high and low records may vary slightly from our data, if they occured in-between our weather recording intervals... More about our weather records

Advertising

Yellowknife weather history for previous 24 hours

 ConditionsComfort  
Time TempWeatherWind HumidityBarometerVisibility
2:00 AM
Dec 28
-17 °FLight snow. Mostly cloudy.3 mph76%30.56 "Hg10 mi
1:00 AM-17 °FLight snow. Mostly cloudy.No wind76%30.54 "Hg8 mi
12:00 AM-18 °FLight snow. Mostly cloudy.2 mph75%30.53 "Hg3 mi
11:00 PM
Dec 27
-18 °FLight snow. Low clouds.2 mph75%30.51 "Hg3 mi
10:00 PM-18 °FLight snow. Mostly cloudy.3 mph75%30.49 "Hg2 mi
9:00 PM-18 °FLight snow. Mostly cloudy.3 mph75%30.48 "Hg2 mi
8:00 PM-18 °FLight snow. Overcast.No wind75%30.48 "Hg6 mi
7:00 PM-18 °FLight snow. Overcast.5 mph75%30.46 "Hg8 mi
6:00 PM-18 °FLight snow. Overcast.5 mph75%30.46 "Hg15 mi
5:00 PM-20 °FLight snow. Overcast.3 mph75%30.44 "Hg15 mi
4:00 PM-20 °FPassing clouds.6 mph68%30.42 "Hg15 mi
3:00 PM-22 °FScattered clouds.6 mph68%30.41 "Hg15 mi
2:00 PM-22 °FScattered clouds.7 mph75%30.39 "Hg15 mi
1:00 PM-22 °FBroken clouds.9 mph75%30.40 "Hg15 mi
12:00 PM-22 °FPartly sunny.7 mph68%30.40 "Hg15 mi
11:00 AM-24 °FPartly sunny.7 mph68%30.39 "Hg15 mi
10:00 AM-26 °FPassing clouds.8 mph75%30.38 "Hg15 mi
9:00 AM-26 °FPassing clouds.8 mph75%30.36 "Hg15 mi
8:00 AM-24 °FPassing clouds.9 mph68%30.36 "Hg15 mi
7:00 AM-26 °FPassing clouds.8 mph75%30.37 "Hg15 mi
6:00 AM-26 °FPassing clouds.5 mph67%30.37 "Hg15 mi
5:00 AM-26 °FClear.9 mph75%30.35 "Hg15 mi
3:00 AM-24 °FPassing clouds.8 mph68%30.35 "Hg15 mi
Weather by CustomWeather, © 2014

See weather overviewHow to use our weather pages